This is the latest recevied weather packets stored in our database for station/object KG4GJX. If no packets are shown the sender has not sent any weather packets the latest 10 day(s).
| Time | Temp. | Humidity | Pressure | Rain* | Wind** | Luminosity | Snow |
|---|---|---|---|---|---|---|---|
| 1777052266 | 27.22° C | 50% | 1012.5 hPa | 0 mm | - | - | - |
| 1777051604 | 26.67° C | 53% | 1012.5 hPa | 0 mm | - | - | - |
| 1777050941 | 26.67° C | 52% | 1012.8 hPa | 0 mm | - | - | - |
| 1777050279 | 26.67° C | 53% | 1013.2 hPa | 0 mm | - | - | - |
| 1777049616 | 26.11° C | 56% | 1013.2 hPa | 0 mm | - | - | - |
| 1777048954 | 25.56° C | 59% | 1013.5 hPa | 0 mm | - | - | - |
| 1777048292 | 25.56° C | 57% | 1013.5 hPa | 0 mm | - | - | - |
| 1777047629 | 25° C | 58% | 1013.8 hPa | 0 mm | - | - | - |
| 1777046967 | 25° C | 57% | 1013.8 hPa | 0 mm | - | - | - |
| 1777046305 | 25.56° C | 58% | 1013.8 hPa | 0 mm | - | - | - |
| 1777045642 | 25° C | 57% | 1014.2 hPa | 0 mm | - | - | - |
| 1777044980 | 24.44° C | 59% | 1013.8 hPa | 0 mm | - | - | - |
| 1777044318 | 24.44° C | 61% | 1014.2 hPa | 0 mm | - | - | - |
| 1777043655 | 23.89° C | 65% | 1013.8 hPa | 0 mm | - | - | - |
| 1777042993 | 23.33° C | 66% | 1013.8 hPa | 0 mm | - | - | - |
| 1777042331 | 22.78° C | 65% | 1013.8 hPa | 0 mm | - | - | - |
| 1777041668 | 22.22° C | 69% | 1013.8 hPa | 0 mm | - | - | - |
| 1777041006 | 21.67° C | 68% | 1014.2 hPa | 0 mm | - | - | - |
| 1777040344 | 21.67° C | 68% | 1014.2 hPa | 0 mm | - | - | - |
| 1777039682 | 21.11° C | 72% | 1013.8 hPa | 0 mm | - | - | - |
* Rain latest hour (hover to see other rain measurements)
** Current wind speed in m/s (hover to see current wind gust speed)